| time (UTC) | temp F | wind direction | speed MPH | gust MPH | rain 1hr in | rain 24hr in | rain mn in | humidity % | barometer mb |
| 20260906222004 | 102 | 156 | 2.0 | 10.0 | 0.00 | 0.00 | 0.00 | 34 | 1010.4 |
| 20260906221004 | 102 | 92 | 8.0 | 12.0 | 0.00 | 0.00 | 0.00 | 35 | 1010.4 |
| 20260906220004 | 102 | 132 | 3.0 | 11.0 | 0.00 | 0.00 | 0.00 | 35 | 1010.5 |
| 20260906215004 | 102 | 150 | 5.0 | 13.0 | 0.00 | 0.00 | 0.00 | 33 | 1010.7 |
| 20260906214211 | 102 | 92 | 7.0 | 8.0 | 0.00 | 0.00 | 0.00 | 33 | 1010.8 |
| 20260906213211 | 102 | 169 | 10.0 | 13.0 | 0.00 | 0.00 | 0.00 | 34 | 1010.8 |
| 20260906212004 | 103 | 92 | 4.0 | 14.0 | 0.00 | 0.00 | 0.00 | 33 | 1010.9 |
| 20260906211212 | 103 | 129 | 11.0 | 11.0 | 0.00 | 0.00 | 0.00 | 32 | 1011.0 |
| 20260906210211 | 103 | 123 | 4.0 | 8.0 | 0.00 | 0.00 | 0.00 | 33 | 1011.1 |
| 20260906205003 | 102 | 124 | 3.0 | 9.0 | 0.00 | 0.00 | 0.00 | 34 | 1011.3 |
| 20260906204004 | 101 | 132 | 7.0 | 12.0 | 0.00 | 0.00 | 0.00 | 35 | 1011.4 |
| 20260906203004 | 102 | 130 | 2.0 | 8.0 | 0.00 | 0.00 | 0.00 | 35 | 1011.5 |
| 20260906202004 | 101 | 181 | 3.0 | 11.0 | 0.00 | 0.00 | 0.00 | 36 | 1011.5 |
| 20260906201004 | 100 | 111 | 3.0 | 12.0 | 0.00 | 0.00 | 0.00 | 37 | 1011.7 |
| 20260906200004 | 99 | 158 | 1.0 | 12.0 | 0.00 | 0.00 | 0.00 | 38 | 1011.8 |
| 20260906195004 | 100 | 140 | 5.0 | 10.0 | 0.00 | 0.00 | 0.00 | 38 | 1011.9 |
| 20260906194005 | 101 | 169 | 5.0 | 10.0 | 0.00 | 0.00 | 0.00 | 38 | 1012.0 |
| 20260906193005 | 100 | 161 | 7.0 | 12.0 | 0.00 | 0.00 | 0.00 | 37 | 1012.2 |
| 20260906192004 | 99 | 59 | 1.0 | 6.0 | 0.00 | 0.00 | 0.00 | 39 | 1012.4 |
| 20260906191004 | 99 | 36 | 1.0 | 11.0 | 0.00 | 0.00 | 0.00 | 39 | 1012.5 |
| 20260906190004 | 99 | 142 | 9.0 | 12.0 | 0.00 | 0.00 | 0.00 | 39 | 1012.5 |
| 20260906185004 | 99 | 194 | 1.0 | 11.0 | 0.00 | 0.00 | 0.00 | 39 | 1012.7 |
| 20260906184003 | 100 | 152 | 7.0 | 12.0 | 0.00 | 0.00 | 0.00 | 38 | 1012.7 |
| 20260906183212 | 99 | 161 | 6.0 | 12.0 | 0.00 | 0.00 | 0.00 | 39 | 1012.8 |
| 20260906182004 | 99 | 149 | 9.0 | 10.0 | 0.00 | 0.00 | 0.00 | 41 | 1012.9 |
| 20260906181004 | 99 | 10 | 3.0 | 10.0 | 0.00 | 0.00 | 0.00 | 41 | 1013.1 |
| 20260906180211 | 99 | 148 | 1.0 | 9.0 | 0.00 | 0.00 | 0.00 | 41 | 1013.3 |
| 20260906175004 | 98 | 66 | 3.0 | 9.0 | 0.00 | 0.00 | 0.00 | 42 | 1013.4 |
| 20260906174004 | 98 | 153 | 2.0 | 11.0 | 0.00 | 0.00 | 0.00 | 43 | 1013.6 |
| 20260906173004 | 98 | 136 | 5.0 | 11.0 | 0.00 | 0.00 | 0.00 | 43 | 1013.7 |
| 20260906172004 | 98 | 101 | 3.0 | 11.0 | 0.00 | 0.00 | 0.00 | 43 | 1013.9 |
| 20260906171004 | 98 | 128 | 7.0 | 9.0 | 0.00 | 0.00 | 0.00 | 43 | 1014.1 |
| 20260906170004 | 98 | 110 | 4.0 | 7.0 | 0.00 | 0.00 | 0.00 | 45 | 1014.3 |
| 20260906165004 | 97 | 30 | 2.0 | 8.0 | 0.00 | 0.00 | 0.00 | 46 | 1014.4 |
| 20260906164211 | 96 | 62 | 2.0 | 11.0 | 0.00 | 0.00 | 0.00 | 46 | 1014.5 |
| 20260906163004 | 97 | 13 | 3.0 | 6.0 | 0.00 | 0.00 | 0.00 | 47 | 1014.5 |
| 20260906162211 | 96 | 142 | 1.0 | 6.0 | 0.00 | 0.00 | 0.00 | 48 | 1014.5 |
| 20260906161004 | 95 | 146 | 4.0 | 7.0 | 0.00 | 0.00 | 0.00 | 49 | 1014.5 |
| 20260906160004 | 94 | 116 | 2.0 | 7.0 | 0.00 | 0.00 | 0.00 | 52 | 1014.5 |
| 20260906155004 | 93 | 128 | 2.0 | 4.0 | 0.00 | 0.00 | 0.00 | 54 | 1014.4 |
| 20260906154212 | 92 | 31 | 2.0 | 7.0 | 0.00 | 0.00 | 0.00 | 55 | 1014.4 |
| 20260906153004 | 92 | 148 | 3.0 | 3.0 | 0.00 | 0.00 | 0.00 | 56 | 1014.3 |
| 20260906152211 | 91 | 16 | 3.0 | 4.0 | 0.00 | 0.00 | 0.00 | 58 | 1014.2 |
| 20260906151212 | 90 | 5 | 0.0 | 4.0 | 0.00 | 0.00 | 0.00 | 60 | 1014.3 |
| 20260906150211 | 89 | 40 | 2.0 | 6.0 | 0.00 | 0.00 | 0.00 | 62 | 1014.2 |
| 20260906145211 | 88 | 104 | 2.0 | 5.0 | 0.00 | 0.00 | 0.00 | 63 | 1014.3 |
| 20260906144003 | 87 | 122 | 3.0 | 5.0 | 0.00 | 0.00 | 0.00 | 64 | 1014.4 |
| 20260906143212 | 87 | 192 | 2.0 | 4.0 | 0.00 | 0.00 | 0.00 | 67 | 1014.5 |
| 20260906142004 | 85 | 191 | 1.0 | 4.0 | 0.00 | 0.00 | 0.00 | 69 | 1014.3 |
| 20260906141211 | 84 | 94 | 1.0 | 4.0 | 0.00 | 0.00 | 0.00 | 70 | 1014.3 |
| 20260906140211 | 83 | 142 | 3.0 | 7.0 | 0.00 | 0.00 | 0.00 | 73 | 1014.2 |
| 20260906135006 | 82 | 110 | 3.0 | 4.0 | 0.00 | 0.00 | 0.00 | 74 | 1014.2 |
| 20260906134004 | 81 | 129 | 3.0 | 5.0 | 0.00 | 0.00 | 0.00 | 76 | 1014.2 |
| 20260906133004 | 80 | 113 | 3.0 | 5.0 | 0.00 | 0.00 | 0.00 | 78 | 1014.2 |
| 20260906132211 | 79 | 136 | 2.0 | 6.0 | 0.00 | 0.00 | 0.00 | 80 | 1014.0 |
| 20260906131004 | 78 | 132 | 2.0 | 4.0 | 0.00 | 0.00 | 0.00 | 82 | 1014.0 |
| 20260906130004 | 77 | 93 | 2.0 | 3.0 | 0.00 | 0.00 | 0.00 | 83 | 1013.9 |
| 20260906125004 | 76 | 121 | 1.0 | 3.0 | 0.00 | 0.00 | 0.00 | 83 | 1013.8 |
| 20260906124004 | 76 | 103 | 1.0 | 3.0 | 0.00 | 0.00 | 0.00 | 83 | 1013.6 |
| 20260906123004 | 76 | 129 | 1.0 | 2.0 | 0.00 | 0.00 | 0.00 | 82 | 1013.6 |
| 20260906122004 | 76 | 129 | 1.0 | 2.0 | 0.00 | 0.00 | 0.00 | 82 | 1013.5 |
| 20260906121211 | 76 | 132 | 0.0 | 3.0 | 0.00 | 0.00 | 0.00 | 82 | 1013.4 |
| 20260906120004 | 76 | 130 | 2.0 | 4.0 | 0.00 | 0.00 | 0.00 | 82 | 1013.2 |
| 20260906115004 | 76 | 100 | 1.0 | 2.0 | 0.00 | 0.00 | 0.00 | 82 | 1013.2 |
| 20260906114004 | 76 | 128 | 1.0 | 2.0 | 0.00 | 0.00 | 0.00 | 81 | 1013.1 |
| 20260906113003 | 76 | 128 | 1.0 | 2.0 | 0.00 | 0.00 | 0.00 | 81 | 1013.1 |
| 20260906112212 | 76 | 128 | 0.0 | 2.0 | 0.00 | 0.00 | 0.00 | 81 | 1013.0 |
| 20260906111004 | 77 | 128 | 0.0 | 0.0 | 0.00 | 0.00 | 0.00 | 79 | 1013.0 |
| 20260906110004 | 77 | 128 | 0.0 | 0.0 | 0.00 | 0.00 | 0.00 | 78 | 1012.8 |
| 20260906105004 | 77 | 128 | 0.0 | 1.0 | 0.00 | 0.00 | 0.00 | 78 | 1012.7 |
| 20260906104004 | 78 | 128 | 0.0 | 1.0 | 0.00 | 0.00 | 0.00 | 78 | 1012.7 |
| 20260906103004 | 78 | 128 | 0.0 | 1.0 | 0.00 | 0.00 | 0.00 | 77 | 1012.7 |
| 20260906102211 | 78 | 128 | 0.0 | 1.0 | 0.00 | 0.00 | 0.00 | 77 | 1012.6 |
| 20260906101004 | 78 | 128 | 0.0 | 1.0 | 0.00 | 0.00 | 0.00 | 77 | 1012.5 |
| 20260906100004 | 79 | 128 | 0.0 | 0.0 | 0.00 | 0.00 | 0.00 | 76 | 1012.6 |
| 20260906095004 | 79 | 128 | 0.0 | 1.0 | 0.00 | 0.00 | 0.00 | 76 | 1012.5 |
| 20260906094004 | 79 | 128 | 0.0 | 2.0 | 0.00 | 0.00 | 0.00 | 76 | 1012.4 |
| 20260906093004 | 79 | 128 | 1.0 | 3.0 | 0.00 | 0.00 | 0.00 | 76 | 1012.4 |
| 20260906092004 | 80 | 128 | 1.0 | 2.0 | 0.00 | 0.00 | 0.00 | 75 | 1012.3 |
| 20260906091004 | 80 | 126 | 0.0 | 3.0 | 0.00 | 0.00 | 0.00 | 75 | 1012.2 |
| 20260906090004 | 80 | 123 | 1.0 | 3.0 | 0.00 | 0.00 | 0.00 | 74 | 1012.0 |
| 20260906085004 | 80 | 128 | 3.0 | 4.0 | 0.00 | 0.00 | 0.00 | 74 | 1012.0 |
| 20260906084212 | 80 | 126 | 1.0 | 3.0 | 0.00 | 0.00 | 0.00 | 73 | 1012.1 |
| 20260906083004 | 81 | 150 | 2.0 | 5.0 | 0.00 | 0.00 | 0.00 | 73 | 1012.2 |
| 20260906082004 | 81 | 126 | 2.0 | 6.0 | 0.00 | 0.00 | 0.00 | 73 | 1012.3 |
| 20260906081211 | 81 | 163 | 4.0 | 4.0 | 0.00 | 0.00 | 0.00 | 72 | 1012.4 |
| 20260906080004 | 81 | 108 | 1.0 | 3.0 | 0.00 | 0.00 | 0.00 | 72 | 1012.4 |
| 20260906075004 | 82 | 107 | 2.0 | 4.0 | 0.00 | 0.00 | 0.00 | 71 | 1012.3 |
| 20260906074004 | 82 | 127 | 2.0 | 4.0 | 0.00 | 0.00 | 0.00 | 70 | 1012.4 |
| 20260906073211 | 82 | 136 | 2.0 | 5.0 | 0.00 | 0.00 | 0.00 | 70 | 1012.4 |
| 20260906072004 | 83 | 135 | 2.0 | 5.0 | 0.00 | 0.00 | 0.00 | 69 | 1012.4 |
| 20260906071211 | 83 | 163 | 4.0 | 7.0 | 0.00 | 0.00 | 0.00 | 69 | 1012.5 |
| 20260906070004 | 83 | 111 | 3.0 | 5.0 | 0.00 | 0.00 | 0.00 | 69 | 1012.6 |
| 20260906065004 | 83 | 142 | 3.0 | 7.0 | 0.00 | 0.00 | 0.00 | 68 | 1012.7 |
| 20260906064004 | 84 | 161 | 1.0 | 7.0 | 0.00 | 0.00 | 0.00 | 69 | 1012.9 |
| 20260906063004 | 84 | 173 | 2.0 | 5.0 | 0.00 | 0.00 | 0.00 | 69 | 1012.8 |
| 20260906062211 | 84 | 155 | 3.0 | 5.0 | 0.00 | 0.00 | 0.00 | 69 | 1013.0 |
| 20260906061004 | 84 | 127 | 2.0 | 4.0 | 0.00 | 0.00 | 0.00 | 69 | 1013.1 |
| 20260906060211 | 84 | 156 | 1.0 | 2.0 | 0.00 | 0.00 | 0.00 | 69 | 1012.9 |
| 20260906055004 | 84 | 187 | 1.0 | 3.0 | 0.00 | 0.00 | 0.00 | 68 | 1013.0 |
| 20260906054004 | 84 | 167 | 0.0 | 4.0 | 0.00 | 0.00 | 0.00 | 68 | 1013.0 |
| 20260906053004 | 84 | 130 | 1.0 | 4.0 | 0.00 | 0.00 | 0.00 | 68 | 1013.0 |
| 20260906052003 | 85 | 128 | 2.0 | 4.0 | 0.00 | 0.00 | 0.00 | 67 | 1012.7 |
| 20260906051211 | 85 | 144 | 4.0 | 6.0 | 0.00 | 0.00 | 0.00 | 66 | 1012.7 |
| 20260906050004 | 86 | 139 | 3.0 | 5.0 | 0.00 | 0.00 | 0.00 | 65 | 1012.7 |
| 20260906045004 | 86 | 117 | 2.0 | 6.0 | 0.00 | 0.00 | 0.00 | 65 | 1012.8 |
| 20260906044004 | 86 | 148 | 3.0 | 7.0 | 0.00 | 0.00 | 0.00 | 64 | 1012.8 |
| 20260906043004 | 86 | 156 | 3.0 | 7.0 | 0.00 | 0.00 | 0.00 | 63 | 1012.8 |
| 20260906042004 | 86 | 137 | 2.0 | 6.0 | 0.00 | 0.00 | 0.00 | 62 | 1012.6 |
| 20260906041004 | 87 | 157 | 5.0 | 8.0 | 0.00 | 0.00 | 0.00 | 61 | 1012.6 |
| 20260906040004 | 87 | 134 | 3.0 | 8.0 | 0.00 | 0.00 | 0.00 | 60 | 1012.6 |
| 20260906035003 | 88 | 164 | 5.0 | 9.0 | 0.00 | 0.00 | 0.00 | 58 | 1012.7 |
| 20260906034004 | 88 | 131 | 4.0 | 8.0 | 0.00 | 0.00 | 0.00 | 57 | 1012.8 |
| 20260906033004 | 88 | 117 | 4.0 | 9.0 | 0.00 | 0.00 | 0.00 | 56 | 1012.8 |
| 20260906032004 | 89 | 142 | 5.0 | 6.0 | 0.00 | 0.00 | 0.00 | 55 | 1012.7 |
| 20260906031211 | 89 | 129 | 2.0 | 7.0 | 0.00 | 0.00 | 0.00 | 54 | 1012.5 |
| 20260906030211 | 90 | 174 | 5.0 | 6.0 | 0.00 | 0.00 | 0.00 | 53 | 1012.5 |
| 20260906025004 | 90 | 165 | 5.0 | 7.0 | 0.00 | 0.00 | 0.00 | 53 | 1012.3 |
| 20260906024004 | 90 | 137 | 5.0 | 8.0 | 0.00 | 0.00 | 0.00 | 52 | 1012.2 |
| 20260906023004 | 90 | 134 | 4.0 | 10.0 | 0.00 | 0.00 | 0.00 | 51 | 1011.9 |
| 20260906022211 | 91 | 162 | 7.0 | 10.0 | 0.00 | 0.00 | 0.00 | 51 | 1011.7 |
| 20260906021003 | 91 | 194 | 4.0 | 9.0 | 0.00 | 0.00 | 0.00 | 50 | 1011.6 |
| 20260906020004 | 91 | 145 | 4.0 | 8.0 | 0.00 | 0.00 | 0.00 | 50 | 1011.6 |
| 20260906015004 | 91 | 136 | 4.0 | 13.0 | 0.00 | 0.00 | 0.00 | 49 | 1011.4 |
| 20260906014004 | 92 | 177 | 3.0 | 11.0 | 0.00 | 0.00 | 0.00 | 49 | 1011.2 |
| 20260906013211 | 93 | 130 | 5.0 | 12.0 | 0.00 | 0.00 | 0.00 | 48 | 1011.1 |
| 20260906012004 | 94 | 141 | 2.0 | 12.0 | 0.00 | 0.00 | 0.00 | 46 | 1011.0 |
| 20260906011004 | 95 | 135 | 9.0 | 16.0 | 0.00 | 0.00 | 0.00 | 43 | 1010.7 |
| 20260906010004 | 95 | 131 | 1.0 | 6.0 | 0.00 | 0.00 | 0.00 | 41 | 1010.5 |
| 20260906005004 | 96 | 150 | 2.0 | 8.0 | 0.00 | 0.00 | 0.00 | 40 | 1010.5 |
| 20260906004004 | 96 | 137 | 2.0 | 7.0 | 0.00 | 0.00 | 0.00 | 39 | 1010.5 |
| 20260906003004 | 96 | 123 | 4.0 | 9.0 | 0.00 | 0.00 | 0.00 | 38 | 1010.5 |
| 20260906002004 | 97 | 153 | 4.0 | 7.0 | 0.00 | 0.00 | 0.00 | 37 | 1010.5 |
| 20260906001004 | 98 | 134 | 3.0 | 8.0 | 0.00 | 0.00 | 0.00 | 37 | 1010.3 |
| 20260906000212 | 98 | 126 | 3.0 | 9.0 | 0.00 | 0.00 | 0.00 | 36 | 1010.3 |
| 20260905235004 | 99 | 128 | 3.0 | 8.0 | 0.00 | 0.00 | 0.00 | 36 | 1010.4 |
| 20260905234004 | 99 | 139 | 7.0 | 9.0 | 0.00 | 0.00 | 0.00 | 35 | 1010.3 |
| 20260905233003 | 99 | 130 | 9.0 | 10.0 | 0.00 | 0.00 | 0.00 | 35 | 1010.3 |
| 20260905232211 | 99 | 98 | 2.0 | 9.0 | 0.00 | 0.00 | 0.00 | 35 | 1010.3 |
| 20260905231004 | 100 | 111 | 8.0 | 12.0 | 0.00 | 0.00 | 0.00 | 35 | 1010.3 |
| 20260905230004 | 100 | 158 | 5.0 | 9.0 | 0.00 | 0.00 | 0.00 | 34 | 1010.3 |
| 20260905225004 | 101 | 123 | 4.0 | 10.0 | 0.00 | 0.00 | 0.00 | 35 | 1010.2 |
| 20260905224004 | 101 | 121 | 4.0 | 7.0 | 0.00 | 0.00 | 0.00 | 34 | 1010.2 |
| 20260905223004 | 101 | 132 | 3.0 | 10.0 | 0.00 | 0.00 | 0.00 | 34 | 1010.1 |